This is the latest recevied weather packets stored in our database for station/object HI3LT-13. If no packets are shown the sender has not sent any weather packets the latest 10 day(s).
| Time | Temp. | Humidity | Pressure | Rain* | Wind** | Luminosity | Snow |
|---|---|---|---|---|---|---|---|
| 1788363945 | 33.33° C | 76% | 1016 hPa | 0 mm | - | - | - |
| 1788363344 | 31.11° C | 66% | 1016 hPa | 0 mm | - | - | - |
| 1788362743 | 31.11° C | 66% | 1017 hPa | 0 mm | - | - | - |
| 1788362142 | 32.22° C | 78% | 1017 hPa | 0 mm | - | - | - |
| 1788361542 | 32.22° C | 84% | 1017 hPa | 0 mm | - | - | - |
| 1788360941 | 30.56° C | 78% | 1017 hPa | 0 mm | - | - | - |
| 1788360340 | 31.11° C | 82% | 1017 hPa | 0 mm | - | - | - |
| 1788359740 | 30° C | 70% | 1017 hPa | 0 mm | - | - | - |
| 1788359139 | 29.44° C | 78% | 1017 hPa | 0 mm | - | - | - |
| 1788358538 | 30° C | 85% | 1017 hPa | 0 mm | - | - | - |
| 1788357938 | 30° C | 87% | 1017 hPa | 0 mm | - | - | - |
| 1788357337 | 28.33° C | 86% | 1017 hPa | 0 mm | - | - | - |
| 1788356737 | 30° C | 87% | 1017 hPa | 0 mm | - | - | - |
| 1788356136 | 28.89° C | 87% | 1017 hPa | 0 mm | - | - | - |
| 1788355535 | 28.89° C | 86% | 1017 hPa | 0 mm | - | - | - |
| 1788354935 | 28.89° C | 87% | 1017 hPa | 0 mm | - | - | - |
| 1788354334 | 29.44° C | 89% | 1017 hPa | 0 mm | - | - | - |
| 1788353733 | 30.56° C | 89% | 1017 hPa | 0 mm | - | - | - |
| 1788353133 | 25° C | 89% | 1017 hPa | 0 mm | - | - | - |
| 1788352532 | 25° C | 95% | 1017 hPa | 0 mm | - | - | - |
| 1788351931 | 25° C | 95% | 1017 hPa | 0 mm | - | - | - |
| 1788351331 | 24.44° C | 95% | 1017 hPa | 0 mm | - | - | - |
| 1788350730 | 24.44° C | 96% | 1017 hPa | 0 mm | - | - | - |
| 1788350129 | 24.44° C | 96% | 1017 hPa | 0 mm | - | - | - |
| 1788349529 | 23.33° C | 95% | 1017 hPa | 0 mm | - | - | - |
* Rain latest hour (hover to see other rain measurements)
** Current wind speed in m/s (hover to see current wind gust speed)